Weather History for Rickenbacker, OH

Change the Weather History Date:

Thursday, May 15, 2014

  Actual Average Record
Temperature  
Mean Temperature 58 °F -  
Max Temperature 67 °F 72 °F 89 °F (1998)
Min Temperature 48 °F 52 °F 41 °F (2000)
Degree Days  
Heating Degree Days 7    
Growing Degree Days 8 (Base 50)    
Moisture  
Dew Point 52 °F    
Average Humidity 76    
Maximum Humidity 88    
Minimum Humidity 61    
Precipitation  
Precipitation 0.00 in - - ()
Sea Level Pressure  
Sea Level Pressure 29.90 in    
Wind  
Wind Speed 8 mph (SW)    
Max Wind Speed 20 mph    
Max Gust Speed 28 mph    
Visibility 9 miles    
Events Rain    
Averages and records for this station are not official NWS values.
T = Trace of Precipitation, MM = Missing Value Source: NWS Daily Summary

Daily Weather History Graph

Daily Weather History Graph

Search for Another Location

Airport:

Trip Planner

Search our weather history database for the weather conditions in past years. The results will help you decide how hot, cold, wet, or windy it might be!

Date:

Astronomy

May. 15, 2014 Rise Set
Actual Time 6:16 AM EDT 8:39 PM EDT
Civil Twilight 5:46 AM EDT 9:10 PM EDT
Nautical Twilight 5:08 AM EDT 9:48 PM EDT
Astronomical Twilight 4:27 AM EDT 10:30 PM EDT
Moon 9:46 PM EDT (5/15) 7:02 AM EDT (5/15)
Length of Visible Light 15h 23m
Length of Day
14h 22m
Full, 99% of the Moon is Illuminated
May 15
Full
May 21
Last Quarter
May 28
New
Jun 5
First Quarter
Jun 13
Full

Hourly Weather History & Observations

Time (EDT) Temp. Dew Point Humidity Pressure Visibility Wind Dir Wind Speed Gust Speed Precip Events Conditions
12:15 AM 67.3 °F 63.0 °F 86% 29.91 in 5.0 mi Calm Calm - N/A Rain Light Rain
12:35 AM 66.7 °F 62.6 °F 86% 29.90 in 5.0 mi Calm Calm - N/A Rain Light Rain
12:55 AM 66.6 °F 62.6 °F 87% 29.90 in 5.0 mi Calm Calm - N/A   Mist
1:15 AM 66.6 °F 62.6 °F 87% 29.90 in 4.0 mi SSE 6.9 mph - N/A Rain Rain
1:35 AM 66.6 °F 62.6 °F 87% 29.87 in 5.0 mi East 5.8 mph - N/A   Mist
1:55 AM 66.4 °F 62.6 °F 88% 29.85 in 10.0 mi East 5.8 mph - N/A   Unknown
2:15 AM 66.4 °F 62.2 °F 86% 29.85 in 10.0 mi Calm Calm - N/A   Unknown
2:35 AM 66.4 °F 61.9 °F 85% 29.84 in 10.0 mi Calm Calm - N/A   Unknown
2:55 AM 66.2 °F 61.7 °F 85% 29.83 in 10.0 mi Calm Calm - N/A Rain Light Rain
3:15 AM 66.2 °F 61.7 °F 85% 29.83 in 10.0 mi SE 4.6 mph - N/A   Light Drizzle
3:35 AM 66.2 °F 61.7 °F 85% 29.81 in 10.0 mi ESE 3.5 mph - N/A   Unknown
3:55 AM 66.2 °F 61.5 °F 85% 29.81 in 10.0 mi ESE 3.5 mph - N/A   Unknown
4:15 AM 66.2 °F 61.2 °F 84% 29.83 in 5.0 mi South 9.2 mph - N/A Rain Heavy Rain
4:35 AM 66.2 °F 61.0 °F 83% 29.81 in 5.0 mi South 8.1 mph - N/A Rain Rain
4:55 AM 65.8 °F 60.4 °F 83% 29.80 in 7.0 mi SSE 5.8 mph - N/A Rain Light Rain
5:15 AM 65.5 °F 60.8 °F 85% 29.79 in 7.0 mi SE 5.8 mph - N/A Rain Rain
5:35 AM 65.3 °F 60.6 °F 85% 29.78 in 5.0 mi SSE 6.9 mph - N/A Rain Rain
5:55 AM 65.1 °F 60.4 °F 85% 29.79 in 5.0 mi SSE 4.6 mph - N/A Rain Rain
6:15 AM 64.8 °F 60.6 °F 86% 29.78 in 5.0 mi SSE 3.5 mph - N/A Rain Light Rain
6:35 AM 65.1 °F 61.0 °F 86% 29.77 in 10.0 mi SE 9.2 mph - N/A   Light Drizzle
6:55 AM 65.5 °F 61.2 °F 86% 29.77 in 10.0 mi SSE 10.4 mph 16.1 mph N/A   Light Drizzle
7:15 AM 66.0 °F 61.2 °F 84% 29.78 in 10.0 mi South 12.7 mph - N/A   Unknown
7:35 AM 66.4 °F 60.8 °F 82% 29.78 in 10.0 mi South 12.7 mph - N/A   Unknown
7:55 AM 66.6 °F 60.8 °F 82% 29.78 in 10.0 mi SSE 12.7 mph 17.3 mph N/A   Unknown
8:15 AM 67.1 °F 60.8 °F 80% 29.77 in 10.0 mi South 13.8 mph - N/A   Unknown
8:35 AM 67.3 °F 60.8 °F 80% 29.76 in 10.0 mi SSE 15.0 mph - N/A   Unknown
8:55 AM 67.3 °F 60.8 °F 80% 29.76 in 10.0 mi SSE 13.8 mph 21.9 mph N/A   Unknown
9:15 AM 66.9 °F 60.1 °F 79% 29.79 in 4.0 mi WSW 16.1 mph 27.6 mph N/A Rain Heavy Rain
9:35 AM 62.1 °F 56.7 °F 82% 29.80 in 4.0 mi WSW 13.8 mph 24.2 mph N/A Rain Light Rain
9:55 AM 61.0 °F 56.5 °F 85% 29.81 in 4.0 mi WSW 10.4 mph 19.6 mph N/A Rain Light Rain
10:15 AM 61.0 °F 56.3 °F 85% 29.82 in 10.0 mi WSW 13.8 mph 21.9 mph N/A Rain Light Rain
10:35 AM 60.3 °F 54.9 °F 82% 29.83 in 10.0 mi WSW 13.8 mph 19.6 mph N/A Rain Rain
10:55 AM 59.7 °F 54.0 °F 81% 29.84 in 10.0 mi WSW 16.1 mph - N/A Rain Light Rain
11:15 AM 59.0 °F 53.1 °F 81% 29.86 in 10.0 mi WSW 17.3 mph - N/A Rain Light Rain
11:35 AM 58.6 °F 52.9 °F 81% 29.87 in 10.0 mi WSW 15.0 mph 23.0 mph N/A   Unknown
11:55 AM 57.4 °F 52.0 °F 82% 29.88 in 10.0 mi WSW 15.0 mph 20.7 mph N/A Rain Light Rain
12:15 PM 56.8 °F 51.8 °F 83% 29.89 in 10.0 mi WSW 15.0 mph 21.9 mph N/A Rain Light Rain
12:35 PM 56.7 °F 51.3 °F 82% 29.89 in 10.0 mi WSW 17.3 mph 21.9 mph N/A Rain Light Rain
12:55 PM 55.9 °F 50.2 °F 81% 29.90 in 10.0 mi SW 16.1 mph 26.5 mph N/A   Unknown
1:35 PM 55.8 °F 48.7 °F 77% 29.91 in 10.0 mi SW 18.4 mph 21.9 mph N/A   Unknown
1:55 PM 56.7 °F 48.2 °F 73% 29.91 in 10.0 mi WSW 18.4 mph 25.3 mph N/A   Unknown
2:15 PM 56.5 °F 47.7 °F 72% 29.92 in 10.0 mi WSW 15.0 mph 25.3 mph N/A   Unknown
3:15 PM 57.4 °F 46.0 °F 66% 29.93 in 10.0 mi WSW 17.3 mph 23.0 mph N/A   Unknown
3:55 PM 56.8 °F 45.1 °F 65% 29.93 in 10.0 mi WSW 16.1 mph 20.7 mph N/A   Unknown
4:15 PM 57.9 °F 45.3 °F 63% 29.94 in 10.0 mi WSW 15.0 mph 21.9 mph N/A   Unknown
4:35 PM 57.6 °F 44.8 °F 62% 29.95 in 10.0 mi West 19.6 mph 23.0 mph N/A   Unknown
4:55 PM 57.2 °F 44.6 °F 63% 29.95 in 10.0 mi WSW 18.4 mph 24.2 mph N/A   Unknown
5:15 PM 56.3 °F 44.1 °F 64% 29.96 in 10.0 mi WSW 15.0 mph 23.0 mph N/A   Unknown
5:35 PM 55.9 °F 43.9 °F 64% 29.96 in 10.0 mi WSW 15.0 mph - N/A   Unknown
5:55 PM 56.3 °F 44.2 °F 64% 29.96 in 10.0 mi WSW 15.0 mph 23.0 mph N/A   Unknown
6:15 PM 56.1 °F 43.5 °F 63% 29.97 in 10.0 mi West 16.1 mph 23.0 mph N/A   Unknown
6:35 PM 55.4 °F 42.8 °F 63% 29.98 in 10.0 mi West 11.5 mph - N/A   Unknown
6:55 PM 55.4 °F 43.0 °F 63% 29.98 in 10.0 mi WSW 16.1 mph 20.7 mph N/A   Unknown
7:15 PM 55.0 °F 43.2 °F 64% 29.99 in 10.0 mi West 12.7 mph - N/A   Unknown
7:35 PM 54.5 °F 43.7 °F 67% 30.00 in 10.0 mi West 11.5 mph - N/A   Unknown
7:55 PM 54.5 °F 43.3 °F 66% 30.00 in 10.0 mi West 9.2 mph - N/A   Unknown
8:15 PM 54.5 °F 43.2 °F 66% 30.00 in 10.0 mi West 9.2 mph - N/A   Unknown
8:35 PM 54.1 °F 41.9 °F 63% 30.01 in 10.0 mi West 13.8 mph - N/A   Unknown
8:55 PM 53.2 °F 41.4 °F 64% 30.02 in 10.0 mi WNW 13.8 mph 19.6 mph N/A   Unknown
9:15 PM 52.2 °F 39.7 °F 63% 30.02 in 10.0 mi WNW 13.8 mph 20.7 mph N/A   Unknown
9:35 PM 51.4 °F 38.8 °F 62% 30.03 in 10.0 mi WNW 13.8 mph 19.6 mph N/A   Unknown
9:55 PM 50.4 °F 38.7 °F 64% 30.03 in 10.0 mi WNW 15.0 mph - N/A   Unknown
10:15 PM 49.8 °F 38.5 °F 65% 30.04 in 10.0 mi WNW 9.2 mph - N/A   Unknown
10:35 PM 49.3 °F 39.2 °F 68% 30.04 in 10.0 mi West 11.5 mph - N/A   Unknown
10:55 PM 49.8 °F 38.7 °F 65% 30.05 in 10.0 mi WNW 10.4 mph - N/A   Unknown
11:15 PM 49.8 °F 37.2 °F 62% 30.05 in 10.0 mi WNW 11.5 mph 18.4 mph N/A   Unknown
11:35 PM 49.3 °F 36.3 °F 61% 30.05 in 10.0 mi WNW 9.2 mph 17.3 mph N/A   Unknown
11:55 PM 48.9 °F 36.0 °F 61% 30.05 in 10.0 mi NW 8.1 mph - N/A   Unknown